Location: Winthrop
(48.4780°N, 120.1850°W)
Time: 01:45:38
(UTC-07:00)

Transit 2A - Pass Details

Date: 22 June 2024
Orbit: 591 x 960 km, 66.7° (Epoch: 23 July)

Event Time Altitude Azimuth Distance (km) Brightness Sun altitude
Rises 23:38:54 0° 325° (NW) 3,486 11.0 -15.7°
Reaches altitude 10° 23:41:25 10° 331° (NNW) 2,589 10.0 -15.8°
Maximum altitude 23:47:22 53° 48° (NE) 1,153 7.0 -16.1°
Enters shadow 23:52:38 15° 121° (ESE) 2,372 8.1 -16.4°
